Tracking 19709 objects as of 20-Jun-2019
HD Live streaming from Space Station
objects crossing your sky now

KAISTSAT 4

Track KAISTSAT 4 now!
10-day predictions
KAISTSAT 4 is classified as:


NORAD ID: 27945
Int'l Code: 2003-042G
Perigee: 675.2 km
Apogee: 694.3 km
Inclination: 98.0 °
Period: 98.3 minutes
Semi major axis: 7055 km
RCS: 0.503 m2 (medium)
Launch date: September 27, 2003
Source: South Korea (SKOR)
Launch site: PLESETSK MISSILE AND SPACE COMPLEX (PKMTR)

Turkey's first earth observation satellite; part of international Disaster Monitoring Constellation (DMC).
aabbcc
Your satellite tracking list
Your tracking list is empty




NASA's NSSDC Master Catalog

Two Line Element Set (TLE):
1 27945U 03042G   19169.94603362 -.00000022 +00000-0 +46599-5 0  9998
2 27945 098.0459 301.0813 0013544 095.0334 265.2415 14.64838446839723
Source of the keplerian elements: AFSPC